Find Telstar 5

NORAD ID: 24812 Int'l Des: 1997-026 Owner: LSKY Country: US operational
HEOCIRCULAR

Live Position

Loading 3D Globe...

About Telstar 5

Description loading...

Upcoming Passes

Passes for default location (London). Set your location on the main map for personalized predictions.

Altitude History

Loading altitude history...

Two-Line Element Set

1 24812U 97026A 26110.18056980 -.00000245 00000-0 00000-0 0 9990
2 24812 7.2492 68.4938 0005361 12.7393 355.5183 0.99094387105657
Epoch: Apr 20, 2026 • Age: 20 hours

Current Status

Altitude 36110.4 km
Velocity 3.06 km/s
Sub-Earth Point -5.66°S, 160.07°E
Launch Date May 24, 1997
Age 28.9 years
Type other

Technical Details

Classification Payload
Mass 3900.00 kg
Dry Mass 1469.00 kg
Total Mass 3900.00 kg
Length 4.00 m
Diameter 2.20 m
Span 30.00 m
Shape Box + 2 Pan
Manufacturer LOR
Bus Type FS-1300
Phase Status Unknown Active Status
Owner/State LSKY/US

Most Searched